FENGYUN 1C DEB

Satellite information

Favourite Embed

Satellite Type and Status

DEBRISIN ORBIT

Key statistics

Satellite FENGYUN 1C DEB at a glance.

Uptime

9656

Days in orbit

Revolutions

≈ 13.9

Per day

Orbit

SSO

Sun Synchronous Orbit

Inclination

98.7

Latest

Satellite identification and parameters

Extended collection of information and parameters for FENGYUN 1C DEB.

Object identification

Identified? True

Debris? True

Object name: FENGYUN 1C DEB

International designator: 1999-025AAM

Object number (NORAD): 30326

Object ID (CCSDS): 30326

Country: PEOPLES REPUBLIC OF CHINA (PRC)

Current information (Y/N): Y

RCS size: SMALL

Orbital parameters

Period: 103.938 minutes

Inclination: 98.6563 deg

SMA: 7322.789 km

Apoapsis: 1048.171 km

Periapsis: 841.137 km

RAAN: 180.6446 deg

Eccentricy: 0.01413626

Argument of periapsis: 187.4127 deg

Mean anomaly: 172.4942 deg

Mean motion: 13.85440792 rev/day

Mean motion (dot): 0.00000195 rev/day2

B* drag term: 0.00019007274 1/REarth

Two-line elements (TLE)

Creation date: Oct. 16, 2025, 2:37 a.m.

Reference frame: TEME

Reference center: EARTH

Epoch: Oct. 15, 2025, 10:26 p.m. UTC

TLE line 0: 0 FENGYUN 1C DEB

TLE line 1: 1 30326U 99025AAM 25288.93477735 .00000195 00000-0 19007-3 0 9994

TLE line 2: 2 30326 98.6563 180.6446 0141363 187.4127 172.4942 13.85440792946551

Live tracking on map

Real-time ground track for satellite FENGYUN 1C DEB.

In-orbit conjunctions

A list of the most updated potential collisions computed for object FENGYUN 1C DEB.

Target Orbit TCA Probability of collision Miss distance Type
METEOR 2-17 DEB LEO 2024-11-11 22:44:59 0.0002001468 405.0 (m) DEBRIS
FENGYUN 1C DEB SSO 2024-11-11 13:13:08 0.0003350262 866.0 (m) DEBRIS
CZ-4 DEB SSO 2024-10-26 11:28:27 0.0001015089 305.0 (m) DEBRIS

Associated space launch

Chinese polar orbiting meteorological satellite

FENGYUN 1C DEB was lifted into orbit during the mission ‘Long March 4B | Feng Yun 1C’, on board a Long March 4B space rocket.

The launch took place on May 10, 1999, 1:33 a.m. from Launch Complex 7.

For more information about the launch, click the button.

Launch to space Long March 4B | Feng Yun 1C
Long March 4B | Feng Yun 1C

Agency: N/A

Status: Launch Successful

Launch date: May 10, 1999, 1:33 a.m. UTC

Rocket: Long March 4B

Launch pad: Launch Complex 7

Location: Taiyuan Satellite Launch Center, People's Republic of China

...

Latest news about this satellite

There are no fresh news available about this satellite. Check back as we update our databases every day.


Newsletter sign-up

Weekly statistics, charts and insights to help you stay on top of the space industry.